PEGASUS DEB, 24197

Orbit data source: Space-Track

PEGASUS DEB, 24197 is space debris in LEO originally from a launch on Thu, 19 May 1994 UTC launched from the Air Force Western Test Range (AFWTR). Debris objects in space refer to the collection of defunct objects orbiting the Earth. Examples of debris include non-operational satellites, rocket bodies, and fragments generated from explosions, collisions, or faulty payload assembly.

Loading next visibility...
Identifier
24197, 1994-029JY
Orbit
LEO
Country
Flag of USUS
Related business
Manufacturer
Unknown
Mission
Spacecraft
Bus & Motor
Unknown
Mass
Unknown
Launch date (UTC)
1994-05-19 (32 years ago)
Launch vehicle
Unknown
Launch site
Air Force Western Test Range (AFWTR)
Object type
Payload
Rocket body
Debris
Shape & HBR
Unknown shape, 0.1 m
Radar Cross Section
Small (<0.1 m²)

Expand to show TLE details & history
Last TLE update: 7 hours ago

TLE from 7 hours ago
0 PEGASUS DEB
1 24197U 94029JY  26122.07784248  .00002917  00000-0  27825-3 0  9996
2 24197  82.0898 353.1157 0073315 103.2975  58.5746 14.90937737689874
Epoch: 2026-05-02T01:52Z
TLE epoch observation values (Epoch: 2026-05-02T01:52:05.590Z)
Latitude
17.22448°
Longitude
-77.36378°
Altitude
571.045 km
Speed
7.591 km/s
True Right ascension
11h 22m 38s
True Declination
17° 07' 29"
Sunlit
Object was in full shadow at epoch
Visualization orbit readout
Latitude
Unknown
Longitude
Unknown
Altitude
Unknown
Speed
Unknown
Apparent Right ascension
Unknown
Apparent Declination
Unknown
Sunlit
N/A
Visualization observer readout
Local Sidereal Time
16:32:36
Azimuth
Unknown
Elevation
Unknown
Doppler factor
Unknown
Orbital elements
Apogee altitude
643.139 km
Perigee altitude
540.935 km
Semi-major axis
6,970.174 km
Eccentricity
0.00733
Inclination
82.0898°
RAAN
353.1157°
Arg. of periapsis
103.2975°
True anomaly
59.29492°
Mean anomaly
58.5746°
Eccentric anomaly
58.93442°
Mean motion
3.72973 °/min
Orbital period
96.52 mins
BSTAR
0.00027825
Loading maneuver chart data...
Computing Atmospheric mass density...

Documentation

Showing up to 5 results
|